This is the latest recevied weather packets stored in our database for station/object W7TTE. If no packets are shown the sender has not sent any weather packets the latest 10 day(s).
| Time | Temp. | Humidity | Pressure | Rain* | Wind** | Luminosity | Snow |
|---|---|---|---|---|---|---|---|
| 1777728763 | 18.33° C | 31% | 1014.8 hPa | 0 mm | - | 30 W/m² | - |
| 1777728459 | 18.33° C | 32% | 1014.7 hPa | 0 mm | - | 28 W/m² | - |
| 1777728157 | 18.33° C | 30% | 1014.5 hPa | 0 mm | - | 26 W/m² | - |
| 1777727853 | 17.78° C | 30% | 1014.7 hPa | 0 mm | - | 23 W/m² | - |
| 1777727551 | 17.78° C | 36% | 1014.4 hPa | 0 mm | - | 21 W/m² | - |
| 1777727248 | 17.78° C | 35% | 1014.3 hPa | 0 mm | - | 18 W/m² | - |
| 1777726036 | 17.78° C | 31% | 1014.2 hPa | 0 mm | - | 6 W/m² | - |
| 1777725733 | 17.78° C | 33% | 1014.1 hPa | 0 mm | - | 3 W/m² | - |
| 1777725431 | 17.78° C | 32% | 1014.1 hPa | 0 mm | - | 2 W/m² | - |
| 1777725128 | 17.78° C | 33% | 1014.1 hPa | 0 mm | - | 1 W/m² | - |
| 1777724824 | 18.33° C | 34% | 1013.9 hPa | 0 mm | - | 0 W/m² | - |
| 1777724521 | 18.33° C | 31% | 1013.7 hPa | 0 mm | - | 0 W/m² | - |
| 1777724219 | 18.33° C | 31% | 1013.7 hPa | 0 mm | - | 0 W/m² | - |
| 1777723917 | 18.33° C | 32% | 1013.7 hPa | 0 mm | - | 0 W/m² | - |
| 1777723310 | 18.89° C | 34% | 1013.7 hPa | 0 mm | - | 0 W/m² | - |
| 1777722703 | 18.89° C | 33% | 1013.5 hPa | 0 mm | - | 0 W/m² | - |
| 1777722399 | 18.89° C | 28% | 1013.5 hPa | 0 mm | - | 0 W/m² | - |
| 1777722097 | 18.89° C | 30% | 1013.4 hPa | 0 mm | - | 0 W/m² | - |
| 1777721794 | 18.89° C | 29% | 1013.5 hPa | 0 mm | - | 0 W/m² | - |
| 1777721493 | 18.89° C | 28% | 1013.5 hPa | 0 mm | - | 0 W/m² | - |
| 1777721190 | 19.44° C | 27% | 1013.5 hPa | 0 mm | - | 0 W/m² | - |
| 1777720887 | 20° C | 28% | 1013.4 hPa | 0 mm | - | 0 W/m² | - |
| 1777720585 | 20° C | 26% | 1013.4 hPa | 0 mm | - | 0 W/m² | - |
| 1777720282 | 20.56° C | 26% | 1013.3 hPa | 0 mm | - | 0 W/m² | - |
| 1777719980 | 21.11° C | 26% | 1013.5 hPa | 0 mm | - | 0 W/m² | - |
* Rain latest hour (hover to see other rain measurements)
** Current wind speed in m/s (hover to see current wind gust speed)